This demonstration page uses our WeatherBlox Daily Observations layout. Learn more.

Left ArrowRight Arrow

36.19886, -115.1175

Hourly Observations for October 1, 2022

Temp ( °F °C ) Dew Point ( °F °C ) Humidity (%) Winds ( mph kmh ) Pressure ( in mb ) Visibility ( mi km ) Precip ( " mm )
12:53 am 00:53 Clear 78 25.6 34 1.1 20 20 VRB 3 6 29.74 1007 10 16 0.00 0.00
1:53 am 01:53 Clear 76 24.4 35 1.7 23 23 NNE 5 7 29.75 1008 10 16 0.00 0.00
2:53 am 02:53 Clear 78 25.6 32 0 19 19 NNW 6 9 29.76 1008 10 16 0.00 0.00
3:53 am 03:53 Clear 73 22.8 36 2.2 26 26 Calm 29.76 1008 10 16 0.00 0.00
4:53 am 04:53 Clear 72 22.2 37 2.8 28 28 WNW 7 11 29.77 1008 10 16 0.00 0.00
5:53 am 05:53 Clear 72 22.2 33 0.6 24 24 WNW 6 9 29.79 1009 10 16 0.00 0.00
6:53 am 06:53 Sunny 72 22.2 32 0 23 23 WNW 7 11 29.80 1009 10 16 0.00 0.00
7:53 am 07:53 Sunny 76 24.4 31 -0.6 19 19 NW 7 11 29.83 1010 10 16 0.00 0.00
8:53 am 08:53 Sunny 79 26.1 32 0 18 18 Calm 29.85 1011 10 16 0.00 0.00
9:53 am 09:53 Sunny 82 27.8 33 0.6 17 17 S 5 7 29.85 1011 10 16 0.00 0.00
10:53 am 10:53 Sunny 85 29.4 35 1.7 17 17 VRB 3 6 29.85 1011 10 16 0.00 0.00
11:53 am 11:53 Sunny 88 31.1 42 5.6 20 20 undefined N/A 29.83 1010 10 16 0.00 0.00
12:53 pm 12:53 Sunny 89 31.7 41 5 19 19 Calm 29.81 1010 10 16 0.00 0.00
1:53 pm 13:53 Sunny 90 32.2 37 2.8 16 16 SSW 5 7 29.78 1009 10 16 0.00 0.00
2:53 pm 14:53 Sunny 93 33.9 36 2.2 14 14 SE 9 15 29.75 1008 10 16 0.00 0.00
3:53 pm 15:53 Sunny 93 33.9 38 3.3 15 15 undefined N/A 29.74 1007 10 16 0.00 0.00
4:53 pm 16:53 Sunny 94 34.4 33 0.6 12 12 S 12 19 29.73 1007 10 16 0.00 0.00
5:53 pm 17:53 Sunny 93 33.9 35 1.7 13 13 W 13 20 29.73 1007 10 16 0.00 0.00
6:53 pm 18:53 Clear 91 32.8 37 2.8 15 15 WSW 7 11 29.75 1007 10 16 0.00 0.00
7:53 pm 19:53 Clear 89 31.7 39 3.9 17 17 SW 8 13 29.76 1008 10 16 0.00 0.00
8:53 pm 20:53 Clear 87 30.6 38 3.3 18 18 SW 7 11 29.78 1009 10 16 0.00 0.00
9:53 pm 21:53 Clear 85 29.4 38 3.3 19 19 SSW 7 11 29.80 1009 10 16 0.00 0.00
10:53 pm 22:53 Clear 83 28.3 38 3.3 20 20 SSW 9 15 29.81 1009 10 16 0.00 0.00
11:53 pm 23:53 Clear 83 28.3 41 5 23 23 SSW 7 11 29.81 1010 10 16 0.00 0.00

Powered by AerisWeather